Change the Weather History Date:

Friday, November 2, 2012

  Actual Average (LHBP) Record (LHBP)
Temperature  
Mean Temperature 47 °F -  
Max Temperature 55 °F 52 °F 66 °F (2008)
Min Temperature 39 °F 35 °F 23 °F (1997)
Degree Days  
Heating Degree Days 18    
Moisture  
Dew Point 47 °F    
Average Humidity 94    
Maximum Humidity 100    
Minimum Humidity 77    
Precipitation  
Precipitation 0.00 in - - ()
Sea Level Pressure  
Sea Level Pressure 29.75 in    
Wind  
Wind Speed 4 mph ()    
Max Wind Speed 11 mph    
Max Gust Speed -    
Visibility 3.9 miles    
Events Fog , Rain    
Averages and records for this station are not official NWS values.
T = Trace of Precipitation, MM = Missing Value Source: Averaged Metar Reports

Daily Weather History Graph

Daily Weather History Graph

Search for Another Location

Airport or City:

Trip Planner

Search our weather history database for the weather conditions in past years. The results will help you decide how hot, cold, wet, or windy it might be!

Date:

Astronomy

Nov. 02, 2012 Rise Set
Actual Time 6:25 AM CET 4:23 PM CET
Civil Twilight 5:53 AM CET 4:55 PM CET
Nautical Twilight 5:17 AM CET 5:30 PM CET
Astronomical Twilight 4:42 AM CET 6:06 PM CET
Moon 6:46 PM CET (11/2) 9:40 AM CET (11/2)
Length of Visible Light 11h 01m
Length of Day
9h 57m
Waning Gibbous, 89% of the Moon is Illuminated
Nov 2
Waning Gibbous
Nov 7
Last Quarter
Nov 13
New
Nov 20
First Quarter
Nov 28
Full

Hourly Weather History & Observations

Time (CET) Temp. Windchill Dew Point Humidity Pressure Visibility Wind Dir Wind Speed Gust Speed Precip Events Conditions
12:15 AM 51.8 °F - 51.8 °F 100% 29.59 in - South 4.5 mph - N/A   Clear
12:45 AM 51.8 °F - 50.0 °F 94% 29.59 in - South 6.7 mph - N/A   Clear
1:15 AM 53.6 °F - 50.0 °F 88% 29.59 in - South 6.7 mph - N/A   Clear
1:45 AM 51.8 °F - 48.2 °F 88% 29.59 in - South 6.7 mph - N/A   Clear
2:15 AM 48.2 °F - 48.2 °F 100% 29.59 in - SSE 6.7 mph - N/A   Clear
2:45 AM 50.0 °F - 48.2 °F 94% 29.62 in - South 4.5 mph - N/A   Clear
3:15 AM 48.2 °F - 46.4 °F 93% 29.62 in - SSW 6.7 mph - N/A   Clear
3:45 AM 48.2 °F - 46.4 °F 93% 29.62 in - SSW 6.7 mph - N/A   Clear
4:15 AM 48.2 °F - 46.4 °F 93% 29.65 in - South 2.2 mph - N/A   Clear
4:45 AM 48.2 °F - 44.6 °F 87% 29.65 in - South 4.5 mph - N/A   Clear
5:15 AM 46.4 °F 44.4 °F 44.6 °F 93% 29.65 in - SSW 4.5 mph - N/A   Clear
5:45 AM - - - N/A% - 3.1 mi SSW 4.5 mph - N/A   Clear
6:15 AM 44.6 °F - 44.6 °F 100% 29.68 in 6.2 mi South 2.2 mph - N/A   Partly Cloudy
6:45 AM 46.4 °F - 44.6 °F 93% 29.68 in - South 2.2 mph - N/A   Clear
7:15 AM 46.4 °F 44.4 °F 44.6 °F 93% 29.68 in - South 4.5 mph - N/A   Clear
7:45 AM 46.4 °F - 46.4 °F 100% 29.68 in - South 2.2 mph - N/A   Clear
8:15 AM 50.0 °F - 48.2 °F 94% 29.71 in - Calm Calm - N/A   Clear
8:45 AM - - - N/A% - 6.2 mi Variable 4.5 mph - N/A   Overcast
9:15 AM 53.6 °F - 48.2 °F 82% 29.71 in 6.2 mi Calm Calm - N/A   Mostly Cloudy
9:45 AM 53.6 °F - 48.2 °F 82% 29.71 in 6.2 mi Calm Calm - N/A   Mostly Cloudy
10:15 AM 53.6 °F - 50.0 °F 88% 29.74 in 6.2 mi North 2.2 mph - N/A   Mostly Cloudy
10:45 AM 53.6 °F - 50.0 °F 88% 29.74 in 6.2 mi North 2.2 mph - N/A   Mostly Cloudy
11:15 AM 53.6 °F - 50.0 °F 88% 29.74 in 6.2 mi NNW 2.2 mph - N/A   Mostly Cloudy
11:45 AM - - - N/A% - 6.2 mi Variable 4.5 mph - N/A   Overcast
12:15 PM 55.4 °F - 50.0 °F 82% 29.74 in 6.2 mi WNW 2.2 mph - N/A   Mostly Cloudy
12:45 PM 55.4 °F - 48.2 °F 77% 29.77 in 6.2 mi West 4.5 mph - N/A   Mostly Cloudy
1:15 PM 55.4 °F - 48.2 °F 77% 29.74 in 6.2 mi West 11.2 mph - N/A   Mostly Cloudy
1:31 PM 53.6 °F - 48.2 °F 82% 29.77 in 6.2 mi West 8.9 mph - N/A Rain Light Rain
1:45 PM 51.8 °F - 50.0 °F 94% 29.74 in 6.2 mi West 8.9 mph - N/A Rain Light Rain
2:15 PM 51.8 °F - 50.0 °F 94% 29.77 in 5.0 mi West 4.5 mph - N/A Rain Light Rain
2:45 PM - - - N/A% - 6.2 mi Variable 4.5 mph - N/A   Overcast
3:15 PM 51.8 °F - 50.0 °F 94% 29.77 in 6.2 mi West 6.7 mph - N/A   Overcast
3:42 PM 51.8 °F - 50.0 °F 94% 29.80 in 3.7 mi WNW 6.7 mph - N/A Rain Rain
3:45 PM 51.8 °F - 50.0 °F 94% 29.80 in 3.7 mi West 6.7 mph - N/A Rain Rain
3:50 PM - - - N/A% - 6.2 mi Variable 4.5 mph - N/A   Overcast
4:15 PM 50.0 °F - 48.2 °F 94% 29.80 in 5.0 mi WNW 4.5 mph - N/A Rain Light Rain
4:45 PM 48.2 °F - 48.2 °F 100% 29.80 in 4.3 mi WNW 6.7 mph - N/A Rain Light Rain
5:15 PM 48.2 °F - 48.2 °F 100% 29.83 in 2.5 mi WNW 11.2 mph - N/A Rain Rain Showers
5:45 PM - - - N/A% - 3.1 mi Variable 4.5 mph - N/A Rain Rain
6:15 PM 48.2 °F - 46.4 °F 93% 29.86 in 3.7 mi West 4.5 mph - N/A   Mostly Cloudy
6:45 PM 46.4 °F 44.4 °F 46.4 °F 100% 29.83 in 3.1 mi West 4.5 mph - N/A   Scattered Clouds
6:58 PM 46.4 °F - 46.4 °F 100% 29.83 in 1.9 mi WSW 2.2 mph - N/A   Scattered Clouds
7:09 PM 44.6 °F - 44.6 °F 100% 29.83 in 0.6 mi Calm Calm - N/A   Clear
7:15 PM 42.8 °F - 42.8 °F 100% 29.83 in 0.5 mi Calm Calm - N/A Fog Fog
7:25 PM - - - N/A% - 0.9 mi Variable 4.5 mph - N/A Fog Fog
7:45 PM 44.6 °F - 44.6 °F 100% 29.86 in 0.5 mi SW 2.2 mph - N/A Fog Fog
8:15 PM 39.2 °F 36.0 °F 39.2 °F 100% 29.89 in 0.5 mi West 4.5 mph - N/A Fog Fog
8:36 PM 42.8 °F 40.2 °F 42.8 °F 100% 29.89 in 0.6 mi West 4.5 mph - N/A   Clear
8:45 PM - - - N/A% - 3.1 mi Variable 4.5 mph - N/A Fog Fog
9:15 PM 42.8 °F 40.2 °F 42.8 °F 100% 29.89 in 0.9 mi West 4.5 mph - N/A   Clear
9:45 PM 41.0 °F 38.1 °F 41.0 °F 100% 29.89 in 1.2 mi West 4.5 mph - N/A   Clear
10:15 PM 41.0 °F 36.5 °F 41.0 °F 100% 29.92 in 1.9 mi WSW 6.7 mph - N/A   Clear
10:45 PM 41.0 °F 38.1 °F 41.0 °F 100% 29.92 in 1.9 mi WSW 4.5 mph - N/A   Clear
11:15 PM 41.0 °F 38.1 °F 41.0 °F 100% 29.92 in 1.9 mi West 4.5 mph - N/A   Clear
11:45 PM - - - N/A% - 3.1 mi North - - N/A Fog Fog